Home > Weather > Christchurch > Past weeks

Flag for New Zealand Weather for the Past 2 Weeks in Christchurch, New Zealand

Now
75 °F

Mild.


Feels Like: 78 °F
Forecast: 53 / 82 °F
Wind: 3 mph from Northeast

Location: Christchurch Airport

Current Time: Feb 15, 2016 at 12:29:16 PM

Latest Report: Feb 15, 2016 at 11:00 AM


Visibility: N/A

Pressure: 29.92 "Hg

Humidity: 47%

Dew point: 54 °F

Location of ChristchurchLocation

Historic Weather in Christchurch — Graph

°F

Christchurch Temperature Yesterday

Maximum temperature yesterday: 73 °F (at 12:30 PM)
Minimum temperature yesterday: 52 °F (at 6:30 AM)
Average temperature yesterday: 64 °F

High & Low Weather Summary for the Past Weeks

 TemperatureHumidityPressure
High88 °F (Feb 4, 2:00 PM)100% (Feb 2, 4:30 AM)30.21 "Hg (Feb 2, 4:30 AM)
Low48 °F (Feb 10, 7:00 AM)27% (Feb 4, 4:30 PM)29.68 "Hg (Feb 9, 11:30 AM)
Average64 °F78%29.96 "Hg
* Reported Jan 31 11:00 AM — Feb 15 11:00 AM, Christchurch, Weather by CustomWeather, © 2016

Note: Actual official high and low records may vary slightly from our data, if they occured in-between our weather recording intervals... More about our weather records

Advertising

Christchurch Weather History for the Previous 24 Hours

 ConditionsComfort  
Time TempWeatherWind HumidityBarometerVisibility
11:00 AM
Mon, Feb 15
75 °FMild.3 mph47%29.92 "HgN/A
10:30 AM72 °FMild.5 mph57%29.95 "HgN/A
9:30 AM66 °FMild.3 mph78%29.95 "HgN/A
9:00 AM63 °FMild.1 mph100%29.95 "HgN/A
8:30 AM59 °FCool.1 mph100%29.95 "HgN/A
8:00 AM57 °FDense fog.2 mph100%29.92 "Hg1 mi
7:30 AM55 °FFog.2 mph100%29.92 "Hg0 mi
7:00 AM57 °FFog.2 mph100%29.92 "Hg0 mi
6:30 AM59 °FFog.1 mph100%29.92 "Hg0 mi
6:00 AM59 °FFog.2 mph100%29.92 "Hg0 mi
5:30 AM61 °FFog.5 mph100%29.92 "Hg0 mi
5:00 AM61 °FFog.3 mph100%29.92 "Hg0 mi
4:30 AM61 °FFog.5 mph100%29.92 "Hg1 mi
4:00 AM61 °FFog.5 mph100%29.92 "Hg3 mi
3:30 AM61 °FFog.5 mph94%29.92 "Hg3 mi
3:00 AM61 °FFog.5 mph100%29.92 "Hg3 mi
2:30 AM61 °FFog.5 mph100%29.92 "Hg3 mi
2:00 AM59 °FFog.6 mph100%29.92 "Hg2 mi
1:30 AM59 °FFog.5 mph100%29.95 "Hg2 mi
1:00 AM59 °FCool.3 mph100%29.95 "Hg4 mi
12:30 AM59 °FCool.5 mph100%29.95 "HgN/A
12:00 AM61 °FCool.5 mph94%29.95 "HgN/A
11:30 PM
Sun, Feb 14
61 °FCool.7 mph94%29.95 "HgN/A
11:00 PM63 °FPassing clouds.8 mph94%29.95 "HgN/A
10:30 PM64 °FOvercast.10 mph88%29.95 "HgN/A
10:00 PM64 °FLow clouds.12 mph88%29.95 "HgN/A
9:30 PM64 °FLow clouds.12 mph94%29.95 "HgN/A
8:30 PM64 °FMild.13 mph88%29.95 "HgN/A
8:00 PM66 °FMild.13 mph83%29.95 "HgN/A
7:30 PM68 °FMild.15 mph78%29.92 "HgN/A
7:00 PM68 °FMild.16 mph78%29.92 "HgN/A
6:30 PM70 °FMild.15 mph69%29.95 "HgN/A
6:00 PM72 °FMild.15 mph69%29.95 "HgN/A
5:30 PM72 °FMild.16 mph65%29.95 "HgN/A
5:00 PM72 °FMild.15 mph65%29.95 "HgN/A
4:30 PM72 °FMild.16 mph69%29.95 "HgN/A
4:00 PM73 °FMild.14 mph65%29.95 "HgN/A
3:30 PM73 °FMild.15 mph65%29.98 "HgN/A
3:00 PM73 °FMild.14 mph65%29.98 "HgN/A
2:30 PM73 °FMild.13 mph61%29.98 "HgN/A
2:00 PM73 °FMild.10 mph61%30.01 "HgN/A
1:30 PM73 °FMild.12 mph65%30.01 "HgN/A
1:00 PM72 °FMild.9 mph65%30.01 "HgN/A
12:30 PM73 °FMild.10 mph65%30.04 "HgN/A
12:00 PM70 °FPassing clouds.9 mph69%30.04 "HgN/A
Weather by CustomWeather, © 2016

See weather overviewHow to use our weather pages